[Iaude] MPEC C78: 2024 CJ1 [a=1.32,e=0.32,i=0.2,H=28.5]
    mpec at cfa.harvard.edu 
    mpec at cfa.harvard.edu
       
    Wed Feb  7 20:13:56 EST 2024
    
    
  
M.P.E.C. 2024-C78                              Issued 2024 February 8, 01:11 UT
     The Minor Planet Electronic Circulars contain information on unusual
         minor planets, routine data on comets and natural satellites,
         and occasional editorial announcements.  They are published
    on behalf of Division F of the International Astronomical Union by the
          Minor Planet Center, Smithsonian Astrophysical Observatory,
                          Cambridge, MA 02138, U.S.A.
			  
             Prepared using the Tamkin Foundation Computer Network
                              MPC at CFA.HARVARD.EDU
            URL https://www.minorplanetcenter.net/    ISSN 1523-6714
                                    2024 CJ1                                    
Observations:
     K24C01J* C2024 02 06.97869 08 47 08.32 +25 54 19.8          19.2 GVEC078K88
     K24C01J  C2024 02 06.98068 08 47 09.73 +25 54 32.6          19.0 GVEC078K88
     K24C01J  C2024 02 06.98317 08 47 11.38 +25 54 49.4          19.5 GVEC078K88
     K24C01J KC2024 02 07.00795708 47 28.53 +25 57 32.7          19.6 RoEC078K88
     K24C01J KC2024 02 07.01009508 47 30.07 +25 57 46.2          19.5 RoEC078K88
     K24C01J KC2024 02 07.01223208 47 31.58 +25 58 00.8          19.4 RoEC078K88
     K24C01J KB2024 02 07.02481008 47 51.74 +26 00 39.4          19.4 GXEC078958
     K24C01J KB2024 02 07.02911408 47 54.73 +26 01 09.2          19.3 GXEC078958
     K24C01J KB2024 02 07.03262 08 47 42.63 +26 00 20.4          19.6 GXEC078M45
     K24C01J KB2024 02 07.03341308 47 57.69 +26 01 38.7          19.3 GXEC078958
     K24C01J KB2024 02 07.03703308 48 00.17 +26 02 03.4          19.3 GXEC078958
     K24C01J KB2024 02 07.03735 08 47 46.15 +26 00 50.1          19.6 GXEC078M45
     K24C01J KB2024 02 07.04045408 48 02.62 +26 02 27.0          19.5 GXEC078958
     K24C01J KC2024 02 07.04304508 47 54.08 +26 01 20.0          19.0 RoEC078K88
     K24C01J KB2024 02 07.04383008 48 04.94 +26 02 50.3          19.4 GXEC078958
     K24C01J KC2024 02 07.04518508 47 55.64 +26 01 33.3          19.6 RoEC078K88
     K24C01J KC2024 02 07.04732908 47 57.27 +26 01 47.4          19.3 RoEC078K88
     K24C01J KC2024 02 07.07949008 48 22.43 +26 05 12.5          19.3 RoEC078K88
     K24C01J KC2024 02 07.08405208 48 26.12 +26 05 41.8          19.5 RoEC078K88
     K24C01J KC2024 02 07.10685508 49 46.96 +26 10 31.1          19.4 GVEC078H21
     K24C01J KC2024 02 07.10957008 49 49.12 +26 10 54.7          19.6 GVEC078H21
     K24C01J KC2024 02 07.11236608 49 51.35 +26 11 18.9          19.7 GVEC078H21
     K24C01J KC2024 02 07.11516308 49 53.59 +26 11 43.1          19.5 GVEC078H21
     K24C01J KB2024 02 07.45176 08 56 24.14 +26 59 36.4          18.9 GXEC078Q06
     K24C01J KB2024 02 07.45752 08 56 30.69 +27 00 42.0          19.4 GXEC078Q06
     K24C01J KB2024 02 07.46310 08 56 36.90 +27 01 44.0          18.9 GXEC078Q06
     K24C01J KB2024 02 07.91315 09 08 08.49 +28 25 35.8          19.3 GVEC078L65
     K24C01J KB2024 02 07.91608809 08 25.57 +28 28 24.3          18.6 GXEC078958
     K24C01J KB2024 02 07.91930509 08 30.94 +28 29 11.6          18.6 GXEC078958
     K24C01J KB2024 02 07.92249109 08 36.29 +28 29 57.8          18.6 GXEC078958
     K24C01J KB2024 02 07.92699 09 08 32.22 +28 28 53.5          18.9 GVEC078L65
     K24C01J KB2024 02 07.94039 09 08 55.36 +28 32 06.4          18.8 GVEC078L65
Observer details:
958 Observatoire de Dax.  Observer P. Dupouy.  0.50-m f/4.5 Reflector + CMO.
H21 Astronomical Research Observatory, Westfield.  Observer R. Holmes.
    Measurers T. Linder, R. Holmes, L. Horn.  0.76-m f/3.0 astrograph + CCD.
K88 GINOP-KHK, Piszkesteto.  Observer K. Sarneczky.  0.60-m Schmidt + CCD.
L65 Bredenkamp Observatory, Bremen.  Observer H. Duin.  0.23-m f/6.3 reflector
    + CMO.
M45 Starhopper Observatory, Sfantu Gheorghe.  Observer F. Ursache.  0.41-m
    f/7.5 reflector + CMO.
Q06 Tarui Observatory, Tarui.  Observer H. Watanabe.  0.35-m f/1.9 Schmidt-
    Cassegrain + CMO.
Orbital elements:
2024 CJ1                                                 Earth MOID = 0.0014 AU
Epoch 2023 Sept. 13.0 TT = JDT 2460200.5                Bell                    
M 236.36920              (2000.0)            P               Q                  
n   0.64983265     Peri.   91.87662     -0.98346694     +0.18106787             
a   1.3200844      Node    98.55535     -0.16720484     -0.90228129             
e   0.3164602      Incl.    0.15546     -0.06953642     -0.39128366             
P   1.52           H   28.54          G   0.15           U   6                  
Residuals in seconds of arc
240206 K88  0.7-  0.3-    240207 M45  0.4+  0.3-    240207 H21  0.0   0.1-
240206 K88  0.1+  0.7-    240207 958  0.7+  0.5-    240207 Q06  0.6-  0.2-
240206 K88  0.4-  0.4-    240207 K88  0.3+  0.1+    240207 Q06  0.2+  0.9+
240207 K88  0.4-  0.2-    240207 958  0.2+  0.3-    240207 Q06  0.5-  0.3+
240207 K88  0.0   0.6-    240207 K88  0.4-  0.4-    240207 L65  0.2-  0.1+
240207 K88  0.1-  0.1+    240207 K88  0.2-  0.0     240207 958  1.2+  1.3+
240207 958  0.9-  0.5-    240207 K88  0.3+  0.2-    240207 958  0.5+  0.8+
240207 958  0.2-  0.4-    240207 K88  0.2+  0.0     240207 958  0.0   0.3-
240207 M45  0.6+  0.1-    240207 H21  0.1+  0.1+    240207 L65  0.3+  0.5-
240207 958  0.1-  0.4-    240207 H21  0.0   0.1+    240207 L65  0.2-  0.2+
240207 958  0.4-  0.6-    240207 H21  0.1-  0.0
Ephemeris:
2024 CJ1                 a,e,i = 1.32, 0.32, 0                   q = 0.9023
Date    TT    R. A. (2000) Decl.     Delta      r    Elong.  Phase     V
2024 01 09    08 10 53.7 +20 17 03   0.1510  1.1312   167.4    10.9    25.4
...
2024 01 24    08 13 49.6 +20 51 02   0.07501 1.0592   177.7     2.2    23.3
...
2024 02 01    08 19 19.7 +21 54 02   0.03873 1.0234   170.5     9.1    22.1
...
2024 02 07    08 47 36.6 +26 01 13   0.01260 0.9984   167.3    12.6    19.8
2024 02 08    09 10 47.4 +28 53 25   0.0083740.9945   166.1    13.8    18.9
2024 02 09    10 25 09.4 +35 32 54   0.0044030.9905   155.7    24.2    17.9
...
2024 02 15    19 51 35.0 -17 29 25   0.02255 0.9679    29.1   150.3    28.7
...
2024 02 23    20 06 58.7 -19 37 54   0.05770 0.9418    33.8   144.2    29.7
...
2024 03 09    20 23 05.9 -19 45 49   0.1273  0.9077    45.2   129.1    29.5
M. P. C. Staff               (C) Copyright 2024 MPC           M.P.E.C. 2024-C78
    
    
More information about the Iaude
mailing list